CW0506 Weather Reports


Display with metric or nautical units.
time (UTC)temp
F
wind
direction
speed
MPH
gust
MPH
rain 1hr
in
rain 24hr
in
rain mn
in
humidity
%
barometer
mb
20260906122754 59 51 2.0 3.0 0.00 0.26 0.26 99 1014.2
20260906122249 59 37 0.0 2.0 0.02 0.26 0.26 99 1014.4
20260906121746 59 44 0.0 4.0 0.07 0.26 0.26 99 1014.3
20260906121242 59 134 0.0 3.0 0.05 0.25 0.25 99 1014.1
20260906120737 59 237 0.0 2.0 0.02 0.24 0.24 99 1014.2
20260906120234 59 217 0.0 3.0 0.05 0.24 0.24 99 1014.3
20260906115729 59 31 2.0 4.0 0.02 0.24 0.24 99 1014.2
20260906115224 60 179 2.0 4.0 0.00 0.24 0.24 99 1014.2
20260906114723 60 242 0.0 1.0 0.00 0.24 0.24 99 1014.1
20260906114218 60 199 0.0 2.0 0.00 0.24 0.24 99 1014.0
20260906113713 60 127 0.0 2.0 0.00 0.24 0.24 99 1013.7
20260906113212 59 144 0.0 1.0 0.00 0.24 0.24 99 1013.7
20260906112707 59 210 0.0 3.0 0.00 0.24 0.24 99 1013.6
20260906112204 59 273 0.0 2.0 0.00 0.24 0.24 99 1013.6
20260906111703 59 6 0.0 2.0 0.00 0.24 0.24 99 1013.7
20260906111158 60 269 1.0 2.0 0.00 0.24 0.24 99 1013.8
20260906110653 60 34 3.0 3.0 0.00 0.24 0.24 99 1013.6
20260906110148 59 62 0.0 1.0 0.00 0.24 0.24 99 1013.4
20260906105642 59 342 0.0 1.0 0.02 0.24 0.24 99 1013.2
20260906105139 59 247 0.0 1.0 0.02 0.24 0.24 99 1013.1
20260906104637 59 189 0.0 1.0 0.00 0.23 0.23 99 1013.1
20260906104136 59 317 0.0 0.0 0.00 0.23 0.23 99 1013.0
20260906103634 59 242 0.0 1.0 0.00 0.23 0.23 99 1012.9
20260906103125 59 16 0.0 2.0 0.00 0.23 0.23 99 1012.9
20260906102620 59 344 1.0 1.0 0.00 0.23 0.23 99 1012.9
20260906102114 59 223 1.0 2.0 0.00 0.23 0.23 99 1012.6
20260906101608 59 73 0.0 1.0 0.00 0.23 0.23 99 1012.5
20260906101103 59 49 0.0 2.0 0.00 0.23 0.23 99 1012.7
20260906100558 59 187 0.0 1.0 0.00 0.23 0.23 99 1012.7
20260906100053 59 202 1.0 2.0 0.00 0.23 0.23 99 1012.5
20260906095547 59 358 0.0 2.0 0.00 0.23 0.23 99 1012.4
20260906095043 59 74 0.0 1.0 0.00 0.23 0.23 99 1012.4
20260906094542 59 138 0.0 2.0 0.00 0.23 0.23 99 1012.3
20260906094038 59 303 0.0 2.0 0.00 0.23 0.23 99 1012.3
20260906093533 59 229 0.0 1.0 0.00 0.23 0.23 99 1012.1
20260906093028 59 302 1.0 2.0 0.00 0.23 0.23 99 1012.4
20260906092523 59 175 0.0 1.0 0.00 0.23 0.23 99 1012.3
20260906092019 59 299 0.0 3.0 0.00 0.23 0.23 99 1012.3
20260906091514 59 247 0.0 2.0 0.00 0.23 0.23 99 1012.6
20260906091011 59 173 0.0 2.0 0.00 0.23 0.23 99 1012.1
20260906090510 59 53 0.0 2.0 0.00 0.23 0.23 99 1012.2
20260906090005 59 193 0.0 2.0 0.00 0.23 0.23 99 1011.9
20260906085504 59 292 0.0 2.0 0.00 0.23 0.23 99 1012.1
20260906085004 59 189 0.0 1.0 0.00 0.23 0.23 99 1012.0
20260906084458 59 122 0.0 1.0 0.00 0.23 0.23 99 1012.0
20260906083957 59 49 0.0 2.0 0.00 0.23 0.23 99 1012.1
20260906083453 59 313 0.0 2.0 0.00 0.23 0.23 99 1012.0
20260906082952 59 70 0.0 2.0 0.00 0.23 0.23 99 1012.1
20260906082448 59 111 1.0 3.0 0.00 0.23 0.23 99 1012.2
20260906081943 59 83 2.0 2.0 0.00 0.23 0.23 99 1012.1
20260906081438 59 114 1.0 2.0 0.00 0.23 0.23 99 1012.0
20260906080934 59 134 0.0 2.0 0.00 0.23 0.23 99 1012.0
20260906080431 59 116 1.0 2.0 0.00 0.23 0.23 99 1012.1
20260906075931 59 305 0.0 2.0 0.00 0.23 0.23 99 1012.0
20260906075426 59 254 0.0 1.0 0.00 0.23 0.23 99 1012.0
20260906074920 59 318 0.0 1.0 0.00 0.23 0.23 99 1012.1
20260906074415 59 160 1.0 2.0 0.00 0.23 0.23 99 1012.3
20260906073914 59 76 0.0 2.0 0.00 0.23 0.23 99 1012.2
20260906073409 59 60 0.0 2.0 0.00 0.23 0.23 99 1012.1
20260906072905 59 19 0.0 2.0 0.00 0.23 0.23 99 1012.2
20260906072400 59 115 0.0 2.0 0.00 0.23 0.23 99 1012.0
20260906071856 59 213 0.0 1.0 0.00 0.23 0.23 99 1012.2
20260906071351 59 62 0.0 2.0 0.00 0.23 0.23 99 1012.1
20260906070847 59 63 0.0 2.0 0.00 0.23 0.23 99 1012.1
20260906070343 59 113 0.0 2.0 0.00 0.23 0.23 99 1012.0
20260906065838 59 149 0.0 1.0 0.00 0.23 0.23 99 1011.9
20260906065332 59 234 1.0 1.0 0.00 0.23 0.23 99 1012.2
20260906064828 59 3 1.0 3.0 0.00 0.23 0.23 99 1012.2
20260906064324 59 125 0.0 1.0 0.00 0.23 0.23 99 1012.2
20260906063818 59 162 0.0 0.0 0.00 0.23 0.23 99 1012.2
20260906063314 59 162 0.0 2.0 0.00 0.23 0.23 99 1012.1
20260906062809 59 86 1.0 2.0 0.00 0.23 0.23 99 1012.2
20260906062308 59 34 2.0 2.0 0.00 0.23 0.23 99 1012.3
20260906061804 59 137 0.0 0.0 0.00 0.23 0.23 99 1012.4
20260906061301 59 175 0.0 1.0 0.00 0.23 0.23 99 1012.1
20260906060755 59 254 0.0 0.0 0.05 0.23 0.23 99 1012.3
20260906060253 59 341 1.0 2.0 0.02 0.23 0.23 99 1012.3
20260906055748 59 176 0.0 2.0 0.00 0.22 0.22 99 1012.3
20260906055243 59 189 0.0 3.0 0.00 0.22 0.22 99 1012.4
20260906054738 59 254 0.0 2.0 0.00 0.22 0.22 99 1012.4
20260906054234 59 66 2.0 5.0 0.00 0.22 0.22 99 1012.4
20260906053731 60 72 0.0 5.0 0.00 0.22 0.22 99 1012.4
20260906053226 60 135 2.0 3.0 0.00 0.22 0.22 99 1012.3
20260906052721 60 125 0.0 2.0 0.00 0.22 0.22 99 1012.3
20260906052217 61 99 0.0 7.0 0.02 0.22 0.22 99 1012.3
20260906051714 61 94 3.0 4.0 0.02 0.22 0.22 99 1012.2
20260906051213 61 100 0.0 3.0 0.00 0.22 0.22 99 1012.5
20260906050709 62 38 2.0 3.0 0.00 0.22 0.22 99 1012.1
20260906050204 62 355 2.0 3.0 0.02 0.22 0.22 99 1012.3
20260906045702 62 106 0.0 0.0 0.19 0.22 0.22 99 1012.2
20260906045157 62 88 0.0 3.0 0.28 0.22 0.22 99 1012.4
20260906044653 62 108 0.0 3.0 0.17 0.18 0.18 99 1012.2
20260906044148 62 84 0.0 3.0 0.21 0.17 0.17 99 1012.1
20260906043644 62 101 3.0 6.0 0.35 0.15 0.15 99 1012.1
20260906043139 63 131 2.0 4.0 0.24 0.12 0.12 99 1011.8
20260906042634 63 75 2.0 4.0 0.40 0.09 0.09 99 1011.9
20260906042128 64 89 1.0 5.0 0.33 0.06 0.06 98 1012.1
20260906041623 64 137 2.0 5.0 0.12 0.02 0.02 97 1012.0
20260906041118 64 8 2.0 3.0 0.02 0.00 0.00 96 1011.8
20260906040614 64 280 1.0 3.0 0.00 0.00 0.00 96 1011.7
20260906040109 64 242 0.0 3.0 0.00 0.02 0.02 97 1011.8
20260906035604 64 92 2.0 3.0 0.00 0.02 0.02 98 1011.7
20260906035059 64 68 2.0 2.0 0.00 0.02 0.02 99 1011.7
20260906034554 64 101 0.0 3.0 0.00 0.02 0.02 99 1011.8
20260906034049 64 72 2.0 3.0 0.00 0.02 0.02 99 1011.7
20260906033544 64 237 0.0 1.0 0.00 0.02 0.02 99 1011.7
20260906033039 64 264 0.0 0.0 0.00 0.02 0.02 99 1011.6
20260906032536 64 162 0.0 1.0 0.00 0.02 0.02 99 1011.7
20260906032030 64 137 0.0 1.0 0.00 0.02 0.02 99 1011.4
20260906031526 64 125 0.0 0.0 0.00 0.02 0.02 99 1011.4
20260906031021 64 204 0.0 0.0 0.00 0.02 0.02 99 1011.2
20260906030521 64 204 0.0 0.0 0.00 0.02 0.02 99 1011.4
20260906030020 64 307 0.0 1.0 0.00 0.02 0.02 99 1011.4
20260906025520 64 150 0.0 0.0 0.00 0.02 0.02 99 1011.6
20260906025018 64 66 0.0 1.0 0.00 0.02 0.02 99 1011.5
20260906024514 64 44 0.0 0.0 0.00 0.02 0.02 99 1011.5
20260906024008 64 338 1.0 2.0 0.00 0.02 0.02 99 1011.3
20260906023504 64 315 1.0 1.0 0.00 0.02 0.02 99 1011.5
20260906022959 64 67 0.0 3.0 0.00 0.02 0.02 99 1011.5
20260906022454 64 67 0.0 3.0 0.00 0.02 0.02 99 1011.5
20260906021949 64 340 0.0 2.0 0.00 0.02 0.02 99 1011.4
20260906021444 63 144 0.0 1.0 0.00 0.02 0.02 99 1011.2
20260906020938 63 242 0.0 1.0 0.00 0.02 0.02 99 1011.4
20260906020432 63 302 0.0 2.0 0.00 0.02 0.02 99 1011.3
20260906015926 63 137 0.0 1.0 0.00 0.02 0.02 99 1011.2
20260906015421 63 302 0.0 0.0 0.00 0.02 0.02 99 1010.9
20260906014921 63 175 0.0 0.0 0.00 0.02 0.02 99 1011.2
20260906014420 63 175 0.0 0.0 0.00 0.02 0.02 99 1011.2
20260906013917 63 149 1.0 1.0 0.00 0.02 0.02 99 1011.0
20260906013412 63 339 0.0 1.0 0.00 0.02 0.02 99 1010.9
20260906012908 63 129 0.0 1.0 0.00 0.02 0.02 99 1010.9
20260906012402 62 150 0.0 1.0 0.00 0.02 0.02 99 1010.9
20260906011902 63 217 0.0 1.0 0.00 0.02 0.02 99 1011.2
20260906011356 63 24 0.0 0.0 0.00 0.02 0.02 99 1011.2
20260906010852 63 24 0.0 1.0 0.00 0.02 0.02 99 1010.8
20260906010348 63 210 0.0 0.0 0.00 0.02 0.02 99 1010.8
20260906005844 63 224 0.0 2.0 0.00 0.02 0.02 99 1010.8
20260906005343 63 76 0.0 1.0 0.00 0.02 0.02 99 1010.7
20260906004841 63 175 0.0 1.0 0.00 0.02 0.02 99 1010.4
20260906004336 63 224 0.0 0.0 0.00 0.02 0.02 99 1010.5
20260906003831 64 224 0.0 0.0 0.00 0.02 0.02 99 1010.3
20260906003327 64 137 0.0 0.0 0.00 0.02 0.02 99 1010.6
20260906002822 64 58 1.0 4.0 0.00 0.02 0.02 99 1010.5
20260906002321 64 166 0.0 1.0 0.00 0.02 0.02 99 1010.5
20260906001817 65 242 0.0 0.0 0.00 0.02 0.02 98 1010.5
20260906001312 65 242 0.0 0.0 0.00 0.02 0.02 98 1010.4
20260906000807 65 266 0.0 1.0 0.00 0.02 0.02 98 1010.3
20260906000303 65 92 0.0 2.0 0.00 0.02 0.02 98 1010.1
20260905235757 66 31 0.0 2.0 0.00 0.02 0.02 98 1010.0
20260905235256 66 97 2.0 3.0 0.00 0.02 0.02 98 1010.2
20260905234752 66 159 1.0 2.0 0.00 0.02 0.02 98 1010.1
20260905234247 66 167 1.0 2.0 0.00 0.02 0.02 98 1009.9
20260905233742 66 165 2.0 2.0 0.00 0.02 0.02 98 1009.8
20260905233242 66 125 0.0 1.0 0.00 0.02 0.02 97 1009.5
20260905232736 66 157 0.0 1.0 0.00 0.02 0.02 97 1009.7
20260905232232 67 131 0.0 2.0 0.00 0.02 0.02 97 1009.5
20260905231728 67 115 0.0 1.0 0.00 0.02 0.02 97 1009.7
20260905231223 67 122 1.0 2.0 0.00 0.02 0.02 96 1009.7
20260905230719 68 127 1.0 2.0 0.00 0.02 0.02 96 1009.7
20260905230217 68 150 0.0 1.0 0.00 0.02 0.02 96 1009.5
20260905225716 68 107 0.0 1.0 0.00 0.02 0.02 95 1009.4
20260905225212 69 229 0.0 0.0 0.00 0.02 0.02 95 1009.6
20260905224711 69 229 0.0 0.0 0.00 0.02 0.02 94 1009.7
20260905224206 69 229 0.0 0.0 0.00 0.02 0.02 95 1009.5
20260905223703 69 229 0.0 0.0 0.00 0.02 0.02 95 1009.6
20260905223159 69 162 0.0 0.0 0.00 0.02 0.02 94 1009.5
20260905222654 69 162 0.0 0.0 0.00 0.02 0.02 94 1009.5
20260905222148 69 162 0.0 0.0 0.00 0.02 0.02 94 1009.5
20260905221644 70 162 0.0 0.0 0.00 0.02 0.02 93 1009.4
20260905221141 70 162 0.0 0.0 0.00 0.02 0.02 93 1009.3
20260905220636 69 162 0.0 1.0 0.00 0.02 0.02 92 1009.4
20260905220132 70 235 0.0 1.0 0.00 0.02 0.02 91 1009.4
20260905215631 70 264 0.0 1.0 0.00 0.02 0.02 90 1009.1
20260905215127 70 160 0.0 0.0 0.00 0.02 0.02 88 1009.2
20260905214623 70 189 0.0 0.0 0.00 0.02 0.02 87 1009.3
20260905214123 71 137 0.0 1.0 0.00 0.02 0.02 85 1009.1
20260905213619 71 66 0.0 1.0 0.00 0.02 0.02 84 1009.0
20260905213114 72 46 1.0 2.0 0.00 0.02 0.02 83 1009.2
20260905212609 72 50 0.0 0.0 0.00 0.02 0.02 83 1009.1
20260905212108 72 92 0.0 2.0 0.00 0.02 0.02 85 1009.0
20260905211604 73 224 1.0 2.0 0.00 0.02 0.02 83 1009.0
20260905211059 73 54 4.0 5.0 0.00 0.02 0.02 76 1008.8
20260905210555 74 43 3.0 3.0 0.00 0.02 0.02 75 1008.7
20260905210050 75 41 2.0 4.0 0.00 0.02 0.02 77 1008.7
20260905205549 74 111 2.0 7.0 0.00 0.02 0.02 79 1008.9
20260905205049 73 110 0.0 3.0 0.00 0.02 0.02 85 1008.6
20260905204543 73 125 0.0 1.0 0.00 0.02 0.02 85 1008.5
20260905204039 72 166 0.0 1.0 0.00 0.02 0.02 87 1008.6
20260905203538 73 125 0.0 0.0 0.00 0.02 0.02 87 1008.7
20260905203034 73 64 0.0 1.0 0.00 0.02 0.02 86 1008.6
20260905202529 72 91 1.0 1.0 0.00 0.02 0.02 86 1008.5
20260905202024 72 242 0.0 1.0 0.00 0.02 0.02 87 1008.5
20260905201520 72 359 2.0 3.0 0.00 0.02 0.02 85 1008.6
20260905201019 71 162 0.0 1.0 0.00 0.02 0.02 86 1008.5
20260905200515 71 69 2.0 2.0 0.00 0.02 0.02 86 1008.7
20260905200014 71 235 0.0 1.0 0.00 0.02 0.02 89 1008.4
20260905195508 71 125 0.0 1.0 0.00 0.02 0.02 89 1008.4
20260905195004 71 46 0.0 2.0 0.00 0.02 0.02 90 1008.5
20260905194458 71 189 0.0 0.0 0.00 0.02 0.02 93 1008.6
20260905193957 71 312 0.0 2.0 0.00 0.02 0.02 94 1008.5
20260905193452 70 60 0.0 2.0 0.00 0.02 0.02 94 1008.3
20260905192947 68 162 0.0 1.0 0.00 0.02 0.02 95 1008.7
20260905192442 68 183 0.0 2.0 0.00 0.02 0.02 95 1008.6
20260905191938 68 124 0.0 3.0 0.00 0.02 0.02 94 1008.6
20260905191432 68 151 1.0 2.0 0.00 0.02 0.02 93 1008.7
20260905190931 69 131 1.0 2.0 0.00 0.02 0.02 92 1008.7
20260905190429 69 101 1.0 2.0 0.02 0.02 0.02 91 1008.8
20260905185928 70 132 0.0 4.0 0.07 0.02 0.02 88 1008.8
20260905185423 73 135 2.0 3.0 0.05 0.01 0.01 80 1008.6
20260905184922 75 120 2.0 3.0 0.00 0.00 0.00 72 1008.3
20260905184417 75 71 2.0 3.0 0.00 0.00 0.00 68 1008.4
20260905183915 77 235 0.0 5.0 0.00 0.00 0.00 67 1008.4
20260905183410 77 52 3.0 4.0 0.00 0.00 0.00 65 1008.4
20260905182905 76 77 3.0 4.0 0.00 0.00 0.00 69 1008.2
20260905182404 76 288 5.0 5.0 0.00 0.00 0.00 70 1008.5
20260905181900 75 299 1.0 3.0 0.00 0.00 0.00 71 1008.7
20260905181355 73 238 1.0 3.0 0.00 0.00 0.00 79 1008.8
20260905180854 73 278 2.0 3.0 0.00 0.00 0.00 77 1008.7
20260905180349 74 113 1.0 5.0 0.00 0.00 0.00 76 1008.6
20260905175843 73 144 0.0 2.0 0.00 0.00 0.00 83 1008.7
20260905175338 73 223 2.0 4.0 0.00 0.00 0.00 80 1008.7
20260905174833 71 209 0.0 2.0 0.00 0.00 0.00 88 1008.9
20260905174329 71 279 1.0 2.0 0.00 0.00 0.00 88 1008.8
20260905173824 72 149 0.0 1.0 0.00 0.00 0.00 86 1008.7
20260905173321 73 226 3.0 4.0 0.00 0.00 0.00 79 1008.9
20260905172821 71 209 1.0 2.0 0.00 0.00 0.00 89 1008.9
20260905172318 70 242 0.0 0.0 0.00 0.00 0.00 88 1008.9
20260905171815 70 242 0.0 0.0 0.00 0.00 0.00 87 1008.7
20260905171311 70 242 0.0 1.0 0.00 0.00 0.00 84 1008.7
20260905170807 72 180 0.0 2.0 0.00 0.00 0.00 80 1008.9
20260905170303 73 7 1.0 4.0 0.00 0.00 0.00 77 1008.9
20260905165801 74 87 3.0 4.0 0.00 0.00 0.00 74 1008.9
20260905165258 74 105 1.0 2.0 0.00 0.00 0.00 72 1008.6
20260905164757 74 112 2.0 3.0 0.00 0.00 0.00 72 1008.7
20260905164252 74 242 1.0 2.0 0.00 0.00 0.00 76 1008.6
20260905163748 74 230 0.0 5.0 0.00 0.00 0.00 73 1008.6
20260905163244 74 25 2.0 6.0 0.00 0.00 0.00 72 1008.7
20260905162740 75 142 1.0 4.0 0.00 0.00 0.00 70 1008.6
20260905162239 75 171 1.0 5.0 0.00 0.00 0.00 69 1008.6
20260905161734 75 339 1.0 5.0 0.00 0.00 0.00 69 1008.6
20260905161233 75 91 4.0 8.0 0.00 0.00 0.00 70 1008.8
20260905160731 75 147 4.0 6.0 0.00 0.00 0.00 71 1008.6
20260905160226 75 74 4.0 9.0 0.00 0.00 0.00 71 1008.7
20260905155720 75 253 2.0 5.0 0.00 0.00 0.00 72 1008.8
20260905155219 74 154 1.0 7.0 0.00 0.00 0.00 73 1008.7
20260905154714 74 212 1.0 8.0 0.00 0.00 0.00 76 1008.6
20260905154209 74 67 3.0 9.0 0.00 0.00 0.00 71 1008.9
20260905153705 74 119 2.0 4.0 0.00 0.00 0.00 72 1008.9
20260905153200 74 145 2.0 5.0 0.00 0.00 0.00 76 1009.1
20260905152655 74 83 5.0 8.0 0.00 0.00 0.00 75 1008.9
20260905152150 74 84 3.0 15.0 0.00 0.00 0.00 73 1009.0
20260905151644 74 2 5.0 8.0 0.00 0.00 0.00 72 1008.9
20260905151140 74 33 4.0 6.0 0.00 0.00 0.00 73 1009.0
20260905150635 72 15 1.0 5.0 0.00 0.00 0.00 74 1009.2
20260905150133 71 75 1.0 5.0 0.00 0.00 0.00 77 1009.2
20260905145632 73 180 2.0 5.0 0.00 0.00 0.00 75 1009.1
20260905145131 71 114 2.0 4.0 0.00 0.00 0.00 76 1009.1
20260905144626 71 51 1.0 5.0 0.00 0.00 0.00 77 1009.0
20260905144125 71 211 0.0 7.0 0.00 0.00 0.00 78 1008.8
20260905143620 71 121 2.0 7.0 0.00 0.00 0.00 77 1008.7
20260905143115 71 116 0.0 6.0 0.00 0.00 0.00 77 1008.9
20260905142613 71 135 2.0 5.0 0.00 0.00 0.00 75 1008.8
20260905142108 72 97 3.0 8.0 0.00 0.00 0.00 75 1008.9
20260905141607 72 141 3.0 9.0 0.00 0.00 0.00 74 1008.8
20260905141104 73 155 2.0 7.0 0.00 0.00 0.00 74 1008.5
20260905140559 73 57 4.0 7.0 0.00 0.00 0.00 71 1009.0
20260905140058 73 64 2.0 5.0 0.00 0.00 0.00 75 1008.9
20260905135553 72 83 4.0 8.0 0.00 0.00 0.00 74 1008.9
20260905135054 71 87 2.0 8.0 0.00 0.00 0.00 75 1008.9
20260905134549 72 29 5.0 6.0 0.00 0.00 0.00 75 1009.1
20260905134047 71 175 2.0 4.0 0.00 0.00 0.00 77 1009.2
20260905133543 71 319 1.0 6.0 0.00 0.00 0.00 77 1009.2
20260905133043 71 195 1.0 6.0 0.00 0.00 0.00 80 1009.0
20260905132542 71 283 2.0 4.0 0.00 0.00 0.00 81 1009.1
20260905132037 71 21 0.0 4.0 0.00 0.00 0.00 80 1009.0
20260905131533 71 46 3.0 5.0 0.00 0.00 0.00 80 1009.1
20260905131028 70 352 3.0 5.0 0.00 0.00 0.00 82 1009.3
20260905130527 70 43 2.0 4.0 0.00 0.00 0.00 82 1009.2
20260905130023 71 5 2.0 2.0 0.00 0.00 0.00 79 1009.4
20260905125522 69 335 0.0 2.0 0.00 0.00 0.00 85 1009.4
20260905125017 68 356 2.0 5.0 0.00 0.00 0.00 87 1009.3
20260905124514 66 23 2.0 5.0 0.00 0.00 0.00 92 1009.5
20260905124010 64 315 1.0 3.0 0.00 0.00 0.00 97 1009.5
20260905123505 63 298 2.0 4.0 0.00 0.00 0.00 99 1009.4